DW7371 Weather Reports


Display with metric or nautical units.
time (UTC)temp
F
wind
direction
speed
MPH
gust
MPH
rain 1hr
in
rain 24hr
in
rain mn
in
humidity
%
barometer
mb
20260506090131 52 222 9.0 14.0 0.00 0.00 0.00 88 1014.1
20260506085056 52 199 9.0 14.0 0.00 0.00 0.00 87 1014.1
20260506084116 52 196 8.0 13.0 0.00 0.00 0.00 87 1014.1
20260506083131 52 222 9.0 16.0 0.00 0.00 0.00 86 1014.0
20260506082105 52 227 9.0 16.0 0.00 0.00 0.00 87 1014.0
20260506081031 52 214 9.0 15.0 0.00 0.00 0.00 87 1014.0
20260506073030 53 227 8.0 14.0 0.00 0.00 0.00 87 1013.5
20260506070855 52 225 7.0 13.0 0.00 0.00 0.00 88 1013.6
20260506061657 53 202 6.0 11.0 0.00 0.00 0.00 87 1013.4
20260506060625 53 199 5.0 11.0 0.00 0.00 0.00 87 1013.3
20260506051343 54 231 6.0 13.0 0.00 0.00 0.00 86 1013.2
20260506050315 54 224 7.0 13.0 0.00 0.00 0.00 86 1013.0
20260506044332 54 203 6.0 12.0 0.00 0.00 0.00 85 1012.8
20260506041009 55 201 7.0 12.0 0.00 0.00 0.00 84 1012.5
20260506035958 55 186 7.0 11.0 0.00 0.00 0.00 84 1012.4
20260506034949 55 191 8.0 13.0 0.00 0.00 0.00 83 1012.3
20260506033916 55 193 7.0 11.0 0.00 0.00 0.00 83 1012.1
20260506032930 56 196 7.0 13.0 0.00 0.00 0.00 82 1012.1
20260506025725 57 184 10.0 16.0 0.00 0.00 0.00 80 1012.0
20260506024653 58 164 10.0 16.0 0.00 0.00 0.00 79 1012.0
20260506022527 58 157 5.0 12.0 0.00 0.00 0.00 78 1012.0
20260506021528 59 196 5.0 11.0 0.00 0.00 0.00 77 1012.1
20260506020524 59 197 4.0 10.0 0.00 0.00 0.00 76 1012.1
20260506015527 60 138 5.0 14.0 0.00 0.00 0.00 77 1012.1
20260506014540 60 213 4.0 14.0 0.00 0.00 0.00 75 1012.2
20260506013602 60 161 4.0 11.0 0.00 0.00 0.00 76 1012.1
20260506012613 60 147 5.0 9.0 0.00 0.00 0.00 76 1012.3
20260506011614 61 151 5.0 14.0 0.00 0.00 0.00 75 1012.2
20260506010554 60 180 9.0 15.0 0.00 0.00 0.00 76 1012.3
20260506005535 61 175 10.0 15.0 0.00 0.00 0.00 76 1012.3
20260506004502 60 203 9.0 17.0 0.00 0.00 0.00 76 1012.3
20260506003430 60 209 10.0 17.0 0.00 0.00 0.00 76 1012.4
20260506001257 60 181 9.0 16.0 0.00 0.00 0.00 77 1012.4
20260506000234 59 221 11.0 15.0 0.00 0.00 0.00 79 1012.6
20260505235213 59 195 10.0 14.0 0.00 0.00 0.00 78 1012.8
20260505234208 60 200 11.0 17.0 0.00 0.00 0.00 78 1012.8
20260505233136 59 236 11.0 18.0 0.00 0.00 0.00 77 1012.9
20260505232144 60 197 11.0 18.0 0.00 0.00 0.00 76 1013.1
20260505231200 60 235 11.0 17.0 0.00 0.00 0.00 77 1013.2
20260505230202 59 215 10.0 16.0 0.00 0.00 0.00 78 1013.1
20260505225147 59 213 10.0 14.0 0.00 0.00 0.00 80 1013.3
20260505224117 60 201 9.0 16.0 0.00 0.00 0.00 78 1013.4
20260505223054 59 196 9.0 16.0 0.00 0.00 0.00 79 1013.4
20260505222020 60 219 8.0 16.0 0.00 0.00 0.00 79 1013.5
20260505221035 59 238 9.0 16.0 0.00 0.00 0.00 80 1013.5
20260505220051 59 205 8.0 12.0 0.00 0.00 0.00 80 1013.5
20260505215035 59 196 9.0 12.0 0.00 0.00 0.00 80 1013.6
20260505214037 59 198 8.0 15.0 0.00 0.00 0.00 81 1013.7
20260505213017 59 217 8.0 15.0 0.00 0.00 0.00 82 1013.6
20260505212025 58 189 7.0 15.0 0.00 0.00 0.00 83 1013.7
20260505211001 57 194 8.0 14.0 0.00 0.00 0.00 84 1013.7
20260505205933 58 205 8.0 14.0 0.00 0.00 0.00 83 1013.8
20260505204901 58 200 6.0 11.0 0.00 0.00 0.00 83 1013.8
20260505203917 57 218 8.0 13.0 0.00 0.00 0.00 86 1014.0
20260505201809 57 199 6.0 11.0 0.00 0.00 0.00 86 1013.8
20260505200814 56 225 7.0 10.0 0.00 0.00 0.00 86 1013.9
20260505195813 56 206 6.0 12.0 0.00 0.00 0.00 88 1013.8
20260505194800 56 208 6.0 12.0 0.00 0.00 0.00 86 1013.9
20260505193739 56 198 6.0 11.0 0.00 0.00 0.00 87 1013.9
20260505192736 55 188 7.0 13.0 0.00 0.00 0.00 87 1013.9
20260505190600 55 198 6.0 10.0 0.00 0.00 0.00 88 1014.0
20260505185621 55 209 5.0 10.0 0.00 0.00 0.00 88 1013.9
20260505183519 54 221 5.0 10.0 0.00 0.00 0.00 90 1013.8
20260505182533 54 226 5.0 8.0 0.00 0.00 0.00 90 1013.8
20260505181526 54 229 5.0 9.0 0.00 0.00 0.00 91 1013.8
20260505175404 54 245 5.0 9.0 0.00 0.00 0.00 90 1013.8
20260505174422 54 208 5.0 9.0 0.00 0.00 0.00 90 1013.8
20260505172337 54 186 5.0 9.0 0.00 0.00 0.00 91 1013.6
20260505171304 54 188 6.0 9.0 0.00 0.00 0.00 91 1013.5
20260505170244 54 207 6.0 10.0 0.00 0.00 0.00 90 1013.5
20260505165210 54 212 5.0 11.0 0.00 0.00 0.00 90 1013.5
20260505164221 54 182 6.0 11.0 0.00 0.00 0.00 89 1013.5
20260505163206 54 196 5.0 8.0 0.00 0.00 0.00 89 1013.4
20260505162144 54 179 4.0 8.0 0.00 0.00 0.00 89 1013.4
20260505161157 54 240 5.0 9.0 0.00 0.00 0.00 89 1013.4
20260505152818 53 222 7.0 11.0 0.00 0.00 0.00 89 1013.2
20260505151815 53 234 5.0 9.0 0.00 0.00 0.00 90 1013.1
20260505150753 53 196 6.0 11.0 0.00 0.00 0.00 90 1013.1
20260505130227 51 192 6.0 10.0 0.00 0.00 0.00 92 1011.6
20260505124039 50 178 5.0 8.0 0.00 0.00 0.00 92 1011.3
20260505123031 50 184 5.0 9.0 0.00 0.00 0.00 91 1011.2
20260505122018 51 190 6.0 9.0 0.00 0.00 0.00 90 1011.1
20260505120956 51 179 4.0 10.0 0.00 0.00 0.00 89 1011.1
20260505115958 51 182 5.0 10.0 0.00 0.00 0.00 89 1010.9
20260505115023 51 157 4.0 10.0 0.00 0.00 0.00 89 1011.0
20260505113955 51 183 3.0 10.0 0.00 0.00 0.00 88 1010.7
20260505111809 52 151 2.0 6.0 0.00 0.00 0.00 87 1010.6
20260505110757 52 157 1.0 4.0 0.00 0.00 0.00 86 1010.4
20260505101527 53 194 7.0 11.0 0.00 0.00 0.00 84 1009.8
20260505100509 54 198 8.0 12.0 0.00 0.00 0.00 82 1009.7
20260505095523 54 194 9.0 17.0 0.00 0.00 0.00 81 1009.7
20260505094524 55 195 7.0 17.0 0.00 0.00 0.00 80 1009.7
20260505093547 55 185 7.0 14.0 0.00 0.00 0.00 79 1009.5
20260505091458 56 181 6.0 16.0 0.00 0.00 0.00 78 1009.3